Regional Weather Roundup
Issued by NWS

Home | Current Version | Previous Version | Graphics & Text | Print | Product List | Glossary On
Versions: 1 2 3 4 5 6 7 8 9 10 11 12 13 14 15 16 17 18 19 20 21 22 23 24 25 26 27 28 29 30 31 32 33 34 35 36 37 38 39 40 41 42 43 44 45 46 47 48 49 50
000
ASUS43 KTOP 010659
RWRKS

WEATHER ROUNDUP FOR KANSAS
NATIONAL WEATHER SERVICE GOODLAND KS
200 AM CDT MON SEP 01 2014

NOTE:  "FAIR" INDICATES FEW OR NO CLOUDS BELOW 12,000 FEET WITH NO
SIGNIFICANT WEATHER AND/OR OBSTRUCTIONS TO VISIBILITY.

KSZ001>006-013>018-027>032-041>047-010800-
NORTHWEST KANSAS

CITY           SKY/WX    TMP DP  RH WIND       PRES   REMARKS
GOODLAND       CLEAR     56  53  90 NW6       29.95R
HAYS           MOCLDY    64  59  82 NW5       29.80S
HILL CITY      CLEAR     62  59  90 NW7       29.84R
RUSSELL        CLOUDY    65  63  93 S7        29.78S
$$

KSZ061>065-074>080-084>089-010800-
SOUTHWEST KANSAS

CITY           SKY/WX    TMP DP  RH WIND       PRES   REMARKS
DODGE CITY     CLEAR     66  59  78 E12       29.81R
ELKHART          N/A     66  53  63 N7          N/A
GARDEN CITY    CLEAR     64  58  80 NE10      29.83R
GREAT BEND     CLOUDY    64  61  88 SE7       29.82R
LIBERAL        CLEAR     70  57  64 NE18G26   29.81R
$$

KSZ066>073-081>083-090>101-010800-
SOUTHEAST KANSAS

CITY           SKY/WX    TMP DP  RH WIND       PRES   REMARKS
CHANUTE        CLOUDY    72  62  71 E16       29.82F
COFFEYVILLE    MOCLDY    82  69  64 VRB7      29.81R
HUTCHINSON     CLOUDY    64  61  90 E15G22    29.79F
MEDICINE LODGE   N/A     81  66  60 E9        29.75R
NEWTON         CLOUDY    61  55  82 E8        29.88F THUNDER
PARSONS        CLOUDY    81  67  62 SE6       29.83F
WICHITA INTL   TSTM      66  62  87 NE17G26   29.84F
WICHITA JABRA  TSTM      63  63 100 NE12G23   29.88F
WICHITA MCCONL LGT RAIN  64  64 100 NW15G30   29.90R
WINFIELD       MOCLDY    81  68  64 N9        29.83R
$$

KSZ007>012-019>026-033>040-048>060-102>105-010800-
NORTHEAST KANSAS

CITY           SKY/WX    TMP DP  RH WIND       PRES   REMARKS
CONCORDIA      CLOUDY    69  68  96 CALM      29.76S
EMPORIA        TSTM      63  63 100 NE12      29.84R
LAWRENCE       LGT RAIN N/A N/A N/A S9        29.89R
MANHATTAN      LGT RAIN  68  32  26 SW13      29.82S
OLATHE IND     TSTM      66  65  96 S3        29.89F FOG
OLATHE EXE     LGT RAIN  65  65 100 SE5       29.86F
SALINA         RAIN      64  61  90 S23       29.78F
TOPEKA BILLARD TSTM      68  67  96 S7        29.89R FOG
TOPEKA FORBES  RAIN      67  65  93 S10       29.90R FOG
$$



USA.gov is the U.S. government's official web portal to all federal, state and local government web resources and services.